Time,TemperatureF,DewpointF,PressureIn,WindDirection,WindDirectionDegrees,WindSpeedMPH,WindSpeedGustMPH,Humidity,HourlyPrecipIn,Conditions,Clouds,dailyrainin,SoftwareType,DateUTC
2013-06-25 00:04:00,59.6,59.0,30.06,ENE,74,0.0,0.0,98,0.00,,,0.00,weatherlink.com 1.10,2013-06-25 04:04:00,
2013-06-25 00:19:00,59.6,59.0,30.06,ENE,74,0.0,2.0,98,0.00,,,0.00,weatherlink.com 1.10,2013-06-25 04:19:00,
2013-06-25 00:34:00,60.2,60.0,30.07,NE,53,2.0,3.0,98,0.00,,,0.00,weatherlink.com 1.10,2013-06-25 04:34:00,
2013-06-25 00:49:00,60.9,60.0,30.06,West,268,1.0,5.0,98,0.00,,,0.00,weatherlink.com 1.10,2013-06-25 04:49:00,
2013-06-25 01:19:00,61.4,59.0,30.05,WNW,301,0.0,7.0,93,0.00,,,0.00,weatherlink.com 1.10,2013-06-25 05:19:00,
2013-06-25 01:34:00,60.7,59.0,30.05,WNW,302,0.0,5.0,95,0.00,,,0.00,weatherlink.com 1.10,2013-06-25 05:34:00,
2013-06-25 01:49:00,60.3,59.0,30.05,West,266,1.0,6.0,96,0.00,,,0.00,weatherlink.com 1.10,2013-06-25 05:49:00,
2013-06-25 02:04:00,60.8,60.0,30.05,NNW,329,2.0,5.0,96,0.00,,,0.00,weatherlink.com 1.10,2013-06-25 06:04:00,
2013-06-25 02:19:00,60.8,60.0,30.04,NW,316,2.0,8.0,96,0.00,,,0.00,weatherlink.com 1.10,2013-06-25 06:19:00,
2013-06-25 02:34:00,60.9,60.0,30.03,West,259,1.0,7.0,96,0.00,,,0.00,weatherlink.com 1.10,2013-06-25 06:34:00,
2013-06-25 02:49:00,60.3,59.0,30.03,East,82,5.0,5.0,95,0.00,,,0.00,weatherlink.com 1.10,2013-06-25 06:49:00,
2013-06-25 03:04:00,59.6,58.0,30.03,NW,309,3.0,5.0,93,0.00,,,0.00,weatherlink.com 1.10,2013-06-25 07:04:00,
2013-06-25 03:19:00,59.2,57.0,30.03,WNW,290,3.0,5.0,93,0.00,,,0.00,weatherlink.com 1.10,2013-06-25 07:19:00,
2013-06-25 03:34:00,59.9,57.0,30.02,ENE,67,1.0,7.0,91,0.00,,,0.00,weatherlink.com 1.10,2013-06-25 07:34:00,
2013-06-25 03:49:00,60.2,58.0,30.02,West,275,1.0,11.0,93,0.00,,,0.00,weatherlink.com 1.10,2013-06-25 07:49:00,
2013-06-25 04:04:00,60.3,59.0,30.02,NW,307,4.0,8.0,94,0.00,,,0.00,weatherlink.com 1.10,2013-06-25 08:04:00,
2013-06-25 04:19:00,60.3,59.0,30.02,West,278,2.0,10.0,95,0.00,,,0.00,weatherlink.com 1.10,2013-06-25 08:19:00,
2013-06-25 04:34:00,60.2,59.0,30.02,WNW,296,4.0,7.0,95,0.00,,,0.00,weatherlink.com 1.10,2013-06-25 08:34:00,
2013-06-25 04:49:00,60.0,59.0,30.02,North,355,0.0,6.0,96,0.00,,,0.00,weatherlink.com 1.10,2013-06-25 08:49:00,
2013-06-25 05:04:00,60.0,59.0,30.02,South,188,1.0,8.0,95,0.00,,,0.00,weatherlink.com 1.10,2013-06-25 09:04:00,
2013-06-25 05:19:00,60.3,59.0,30.02,NW,309,2.0,6.0,96,0.00,,,0.00,weatherlink.com 1.10,2013-06-25 09:19:00,
2013-06-25 05:34:00,60.2,59.0,30.02,South,173,0.0,5.0,94,0.00,,,0.00,weatherlink.com 1.10,2013-06-25 09:34:00,
2013-06-25 05:49:00,60.6,57.0,30.01,ESE,115,0.0,2.0,89,0.00,,,0.00,weatherlink.com 1.10,2013-06-25 09:49:00,
2013-06-25 06:04:00,60.3,56.0,30.02,ESE,118,0.0,2.0,86,0.00,,,0.00,weatherlink.com 1.10,2013-06-25 10:04:00,
2013-06-25 06:19:00,60.2,57.0,30.02,ENE,69,1.0,5.0,88,0.00,,,0.00,weatherlink.com 1.10,2013-06-25 10:19:00,
2013-06-25 06:34:00,60.5,59.0,30.03,West,273,0.0,4.0,94,0.00,,,0.00,weatherlink.com 1.10,2013-06-25 10:34:00,
2013-06-25 06:49:00,60.4,59.0,30.03,West,277,2.0,5.0,96,0.00,,,0.00,weatherlink.com 1.10,2013-06-25 10:49:00,
2013-06-25 07:04:00,60.1,59.0,30.03,NW,311,2.0,4.0,97,0.00,,,0.00,weatherlink.com 1.10,2013-06-25 11:04:00,
2013-06-25 07:19:00,60.0,59.0,30.04,SE,124,3.0,6.0,97,0.00,,,0.00,weatherlink.com 1.10,2013-06-25 11:19:00,
2013-06-25 07:34:00,60.0,59.0,30.04,WNW,302,3.0,5.0,97,0.00,,,0.00,weatherlink.com 1.10,2013-06-25 11:34:00,
2013-06-25 07:49:00,60.4,60.0,30.04,SE,126,2.0,6.0,98,0.00,,,0.00,weatherlink.com 1.10,2013-06-25 11:49:00,
2013-06-25 08:04:00,60.7,60.0,30.04,WNW,286,0.0,5.0,97,0.00,,,0.00,weatherlink.com 1.10,2013-06-25 12:04:00,
2013-06-25 08:19:00,61.4,60.0,30.04,NW,309,0.0,4.0,96,0.00,,,0.00,weatherlink.com 1.10,2013-06-25 12:19:00,
2013-06-25 08:34:00,62.9,61.0,30.04,WNW,286,1.0,4.0,94,0.00,,,0.00,weatherlink.com 1.10,2013-06-25 12:34:00,
2013-06-25 08:49:00,63.9,61.0,30.04,WNW,300,3.0,7.0,91,0.00,,,0.00,weatherlink.com 1.10,2013-06-25 12:49:00,
2013-06-25 09:04:00,63.5,61.0,30.05,NW,317,2.0,5.0,92,0.00,,,0.00,weatherlink.com 1.10,2013-06-25 13:04:00,
2013-06-25 09:19:00,62.8,61.0,30.04,NW,315,3.0,8.0,92,0.00,,,0.00,weatherlink.com 1.10,2013-06-25 13:19:00,
2013-06-25 09:34:00,63.9,61.0,30.05,SSE,163,0.0,5.0,91,0.00,,,0.00,weatherlink.com 1.10,2013-06-25 13:34:00,
2013-06-25 09:49:00,64.7,61.0,30.05,WNW,294,7.0,8.0,87,0.00,,,0.00,weatherlink.com 1.10,2013-06-25 13:49:00,
2013-06-25 10:04:00,64.4,61.0,30.05,NNW,339,2.0,7.0,88,0.00,,,0.00,weatherlink.com 1.10,2013-06-25 14:04:00,
2013-06-25 10:19:00,64.5,60.0,30.05,NW,309,8.0,9.0,86,0.00,,,0.00,weatherlink.com 1.10,2013-06-25 14:19:00,
2013-06-25 10:34:00,65.3,61.0,30.05,North,350,3.0,9.0,87,0.00,,,0.00,weatherlink.com 1.10,2013-06-25 14:34:00,
2013-06-25 10:49:00,65.1,62.0,30.04,SSW,200,2.0,13.0,88,0.00,,,0.00,weatherlink.com 1.10,2013-06-25 14:49:00,
2013-06-25 11:04:00,65.0,61.0,30.05,NW,309,3.0,12.0,87,0.00,,,0.00,weatherlink.com 1.10,2013-06-25 15:04:00,
2013-06-25 11:19:00,65.7,62.0,30.05,NW,318,5.0,6.0,87,0.00,,,0.00,weatherlink.com 1.10,2013-06-25 15:19:00,
2013-06-25 11:35:00,66.0,61.0,30.05,SSW,202,4.0,8.0,84,0.00,,,0.00,weatherlink.com 1.10,2013-06-25 15:35:00,
2013-06-25 11:50:00,66.8,62.0,30.05,WSW,247,0.0,7.0,85,0.00,,,0.00,weatherlink.com 1.10,2013-06-25 15:50:00,
2013-06-25 12:05:00,68.1,62.0,30.05,North,9,1.0,7.0,82,0.00,,,0.00,weatherlink.com 1.10,2013-06-25 16:05:00,
2013-06-25 12:20:00,67.0,62.0,30.05,SSW,206,3.0,7.0,84,0.00,,,0.00,weatherlink.com 1.10,2013-06-25 16:20:00,
2013-06-25 12:35:00,67.6,61.0,30.04,WNW,286,3.0,6.0,80,0.00,,,0.00,weatherlink.com 1.10,2013-06-25 16:35:00,
2013-06-25 12:50:00,67.8,61.0,30.04,West,270,1.0,7.0,78,0.00,,,0.00,weatherlink.com 1.10,2013-06-25 16:50:00,
2013-06-25 13:05:00,68.6,61.0,30.04,WNW,303,2.0,7.0,76,0.00,,,0.00,weatherlink.com 1.10,2013-06-25 17:05:00,
2013-06-25 13:20:00,67.8,60.0,30.04,West,275,0.0,5.0,77,0.00,,,0.00,weatherlink.com 1.10,2013-06-25 17:20:00,
2013-06-25 13:35:00,68.9,61.0,30.03,WNW,300,2.0,4.0,76,0.00,,,0.00,weatherlink.com 1.10,2013-06-25 17:35:00,
2013-06-25 13:50:00,69.5,61.0,30.02,WSW,247,3.0,9.0,74,0.00,,,0.00,weatherlink.com 1.10,2013-06-25 17:50:00,
2013-06-25 14:05:00,68.6,60.0,30.01,NNE,30,1.0,9.0,74,0.00,,,0.00,weatherlink.com 1.10,2013-06-25 18:05:00,
2013-06-25 14:20:00,69.9,61.0,30.00,ESE,109,1.0,5.0,73,0.00,,,0.00,weatherlink.com 1.10,2013-06-25 18:20:00,
2013-06-25 14:35:00,70.9,60.0,30.00,SSE,155,4.0,5.0,69,0.00,,,0.00,weatherlink.com 1.10,2013-06-25 18:35:00,
2013-06-25 14:50:00,71.9,61.0,30.00,ENE,61,1.0,5.0,68,0.00,,,0.00,weatherlink.com 1.10,2013-06-25 18:50:00,
2013-06-25 15:05:00,71.0,62.0,30.00,WSW,240,4.0,9.0,74,0.00,,,0.00,weatherlink.com 1.10,2013-06-25 19:05:00,
2013-06-25 15:20:00,70.8,63.0,29.99,SSE,152,1.0,7.0,75,0.00,,,0.00,weatherlink.com 1.10,2013-06-25 19:20:00,
2013-06-25 15:35:00,69.2,62.0,29.99,West,266,0.0,7.0,79,0.00,,,0.00,weatherlink.com 1.10,2013-06-25 19:35:00,
2013-06-25 15:50:00,68.2,61.0,29.99,WNW,285,5.0,11.0,79,0.00,,,0.00,weatherlink.com 1.10,2013-06-25 19:50:00,
2013-06-25 16:05:00,67.4,62.0,29.99,ESE,121,7.0,8.0,84,0.00,,,0.00,weatherlink.com 1.10,2013-06-25 20:05:00,
2013-06-25 16:20:00,67.4,62.0,29.98,SW,221,2.0,9.0,83,0.00,,,0.00,weatherlink.com 1.10,2013-06-25 20:20:00,
2013-06-25 16:35:00,67.5,62.0,29.99,SW,217,1.0,6.0,82,0.00,,,0.00,weatherlink.com 1.10,2013-06-25 20:35:00,
2013-06-25 16:50:00,66.9,62.0,29.98,SW,221,7.0,7.0,85,0.00,,,0.00,weatherlink.com 1.10,2013-06-25 20:50:00,
2013-06-25 17:05:00,65.9,62.0,29.99,SSW,206,4.0,7.0,86,0.00,,,0.00,weatherlink.com 1.10,2013-06-25 21:05:00,
2013-06-25 17:20:00,65.2,62.0,29.98,WNW,288,2.0,9.0,89,0.00,,,0.00,weatherlink.com 1.10,2013-06-25 21:20:00,
2013-06-25 17:35:00,65.0,62.0,29.97,NW,325,0.0,3.0,89,0.00,,,0.00,weatherlink.com 1.10,2013-06-25 21:35:00,
2013-06-25 17:50:00,64.8,62.0,29.97,SE,134,0.0,3.0,90,0.00,,,0.00,weatherlink.com 1.10,2013-06-25 21:50:00,
2013-06-25 18:05:00,64.7,62.0,29.95,ESE,116,0.0,1.0,89,0.00,,,0.00,weatherlink.com 1.10,2013-06-25 22:05:00,
2013-06-25 18:20:00,65.0,62.0,29.93,ESE,116,0.0,0.0,89,0.00,,,0.00,weatherlink.com 1.10,2013-06-25 22:20:00,
2013-06-25 18:35:00,66.4,63.0,29.93,WSW,241,0.0,2.0,87,0.00,,,0.00,weatherlink.com 1.10,2013-06-25 22:35:00,
2013-06-25 18:50:00,67.5,63.0,29.94,SW,223,0.0,4.0,85,0.00,,,0.00,weatherlink.com 1.10,2013-06-25 22:50:00,
2013-06-25 19:05:00,66.8,63.0,29.95,West,259,0.0,3.0,87,0.00,,,0.00,weatherlink.com 1.10,2013-06-25 23:05:00,
2013-06-25 19:20:00,66.1,63.0,29.96,WSW,253,0.0,3.0,89,0.00,,,0.00,weatherlink.com 1.10,2013-06-25 23:20:00,
2013-06-25 19:35:00,65.6,63.0,29.96,SSW,194,0.0,1.0,90,0.00,,,0.00,weatherlink.com 1.10,2013-06-25 23:35:00,
2013-06-25 19:50:00,65.2,62.0,29.95,NNE,26,0.0,1.0,90,0.00,,,0.00,weatherlink.com 1.10,2013-06-25 23:50:00,
2013-06-25 20:05:00,65.4,63.0,29.95,NNE,28,0.0,0.0,90,0.00,,,0.00,weatherlink.com 1.10,2013-06-26 00:05:00,
2013-06-25 20:20:00,64.9,62.0,29.95,ENE,58,0.0,0.0,91,0.00,,,0.00,weatherlink.com 1.10,2013-06-26 00:20:00,
2013-06-25 20:35:00,64.3,62.0,29.95,ENE,58,0.0,0.0,93,0.00,,,0.00,weatherlink.com 1.10,2013-06-26 00:35:00,
2013-06-25 20:50:00,63.4,62.0,29.94,ENE,71,1.0,1.0,94,0.00,,,0.00,weatherlink.com 1.10,2013-06-26 00:50:00,
2013-06-25 21:05:00,62.7,61.0,29.94,ENE,71,0.0,0.0,94,0.00,,,0.00,weatherlink.com 1.10,2013-06-26 01:05:00,
2013-06-25 21:20:00,61.9,61.0,29.95,ENE,71,0.0,0.0,95,0.00,,,0.00,weatherlink.com 1.10,2013-06-26 01:20:00,
2013-06-25 21:35:00,61.3,60.0,29.95,ENE,71,0.0,0.0,95,0.00,,,0.00,weatherlink.com 1.10,2013-06-26 01:35:00,
2013-06-25 21:50:00,61.0,60.0,29.95,ENE,71,0.0,0.0,95,0.00,,,0.00,weatherlink.com 1.10,2013-06-26 01:50:00,
2013-06-25 22:05:00,61.1,60.0,29.95,ENE,71,0.0,0.0,95,0.00,,,0.00,weatherlink.com 1.10,2013-06-26 02:05:00,
2013-06-25 22:20:00,61.0,60.0,29.95,East,83,2.0,2.0,95,0.00,,,0.00,weatherlink.com 1.10,2013-06-26 02:20:00,
2013-06-25 22:35:00,61.3,60.0,29.96,East,83,1.0,2.0,95,0.00,,,0.00,weatherlink.com 1.10,2013-06-26 02:35:00,
2013-06-25 22:50:00,61.4,60.0,29.95,SSE,161,0.0,2.0,94,0.00,,,0.00,weatherlink.com 1.10,2013-06-26 02:50:00,
2013-06-25 23:05:00,61.4,60.0,29.95,SSW,202,3.0,4.0,94,0.00,,,0.00,weatherlink.com 1.10,2013-06-26 03:05:00,
2013-06-25 23:20:00,61.6,60.0,29.96,SSE,159,2.0,4.0,93,0.00,,,0.00,weatherlink.com 1.10,2013-06-26 03:20:00,
2013-06-25 23:35:00,61.2,60.0,29.95,West,272,1.0,6.0,94,0.00,,,0.00,weatherlink.com 1.10,2013-06-26 03:35:00,
2013-06-25 23:50:00,61.1,59.0,29.95,WSW,257,4.0,6.0,93,0.00,,,0.00,weatherlink.com 1.10,2013-06-26 03:50:00,